Weather History for Aswan, Egypt

Change the Weather History Date:

Thursday, December 6, 2012

  Actual Average Record
Temperature  
Mean Temperature 70 °F -  
Max Temperature 81 °F 72 °F 90 °F (2014)
Min Temperature 58 °F 51 °F 51 °F (2001)
Cooling Degree Days 4    
Growing Degree Days 20 (Base 50)    
Moisture  
Dew Point 49 °F    
Average Humidity 49    
Maximum Humidity 72    
Minimum Humidity 25    
Precipitation  
Precipitation 0.00 in 0.00 in - ()
Sea Level Pressure  
Sea Level Pressure 30.00 in    
Wind  
Wind Speed 8 mph ()    
Max Wind Speed 13 mph    
Max Gust Speed -    
Visibility 6.0 miles    
Events      
Averages and records for this station are not official NWS values.
T = Trace of Precipitation, MM = Missing Value Source: Averaged Metar Reports

Daily Weather History Graph

Daily Weather History Graph

Search for Another Location

Airport:

Trip Planner

Search our weather history database for the weather conditions in past years. The results will help you decide how hot, cold, wet, or windy it might be!

Date:

Astronomy

Dec. 06, 2012 Rise Set
Actual Time 6:18 AM EET 5:01 PM EET
Civil Twilight 5:53 AM EET 5:26 PM EET
Nautical Twilight 5:25 AM EET 5:54 PM EET
Astronomical Twilight 4:57 AM EET 6:21 PM EET
Moon 11:54 PM EET (12/6) 11:35 AM EET (12/6)
Length of Visible Light 11h 32m
Length of Day
10h 43m
Waning Gibbous, 52% of the Moon is Illuminated
Dec 6
Waning Gibbous
Dec 6
Last Quarter
Dec 13
New
Dec 20
First Quarter
Dec 28
Full

Hourly Weather History & Observations

Time (EET) Temp. Dew Point Humidity Pressure Visibility Wind Dir Wind Speed Gust Speed Precip Events Conditions
12:00 AM 66.2 °F 48.2 °F 52% 29.98 in - North 6.9 mph - N/A   Clear
1:00 AM 66.2 °F 48.2 °F 52% 30.01 in - North 10.4 mph - N/A   Clear
2:00 AM 65 °F 49 °F 45% 29.99 in 6 mi North 10.4 mph - -   Partly Cloudy
2:00 AM 64.4 °F 48.2 °F 56% 29.98 in - North 10.4 mph - N/A   Clear
3:00 AM 62.6 °F 48.2 °F 59% 29.98 in - North 9.2 mph - N/A   Clear
4:00 AM 60.8 °F 48.2 °F 63% 29.98 in - North 8.1 mph - N/A   Clear
5:00 AM 60.8 °F 48.2 °F 63% 30.01 in - North 8.1 mph - N/A   Clear
6:00 AM 59.0 °F 48.2 °F 67% 30.01 in - North 11.5 mph - N/A   Clear
7:00 AM 59.0 °F 50.0 °F 72% 30.04 in - North 12.7 mph - N/A   Clear
8:00 AM 61 °F 49 °F 56% 30.05 in 6 mi North 9.2 mph - -  
8:00 AM 60.8 °F 50.0 °F 68% 30.04 in - North 9.2 mph - N/A   Clear
9:00 AM 64.4 °F 50.0 °F 59% 30.06 in - North 10.4 mph - N/A   Clear
10:00 AM 68.0 °F 50.0 °F 52% 30.06 in - North 10.4 mph - N/A   Clear
11:00 AM 71.6 °F 51.8 °F 50% 30.04 in - North 10.4 mph - N/A   Clear
12:00 PM 75.2 °F 51.8 °F 44% 30.01 in - NNE 8.1 mph - N/A   Clear
1:00 PM 77.0 °F 50.0 °F 39% 29.98 in - North 8.1 mph - N/A   Clear
2:00 PM 80 °F 51 °F 25% 29.95 in 6 mi North 8.1 mph - -  
2:00 PM 78.8 °F 50.0 °F 36% 29.98 in - North 8.1 mph - N/A   Clear
3:00 PM 80.6 °F 51.8 °F 37% 29.95 in - North 8.1 mph - N/A   Clear
4:00 PM 80.6 °F 51.8 °F 37% 29.95 in - North 8.1 mph - N/A   Clear
5:00 PM 77.0 °F 50.0 °F 39% 29.95 in - North 8.1 mph - N/A   Clear
6:00 PM 75.2 °F 50.0 °F 41% 29.98 in - North 6.9 mph - N/A   Clear
7:00 PM 73.4 °F 48.2 °F 41% 29.98 in - North 6.9 mph - N/A   Clear
8:00 PM 72 °F 46 °F 29% 29.99 in 6 mi North 9.2 mph - -  
8:00 PM 71.6 °F 46.4 °F 41% 30.01 in - North 9.2 mph - N/A   Clear
9:00 PM 69.8 °F 46.4 °F 43% 30.01 in - North 11.5 mph - N/A   Clear
10:00 PM 68.0 °F 48.2 °F 49% 30.01 in - North 10.4 mph - N/A   Clear
11:00 PM 66.2 °F 48.2 °F 52% 29.98 in - NNE 8.1 mph - N/A   Clear